Showing default

FORMOSAT7-4/COSMIC2-4, 44350

Orbit data source: Space-Track

FORMOSAT7-4/COSMIC2-4, 44350 is a payload satellite owned by NSPO (TW) in LEO that was launched on Tue, 25 Jun 2019 UTC via an FALCON HEAVY launch vehicle from the Air Force Eastern Test Range (AFETR). Payload-class satellites include a variety of spacecraft equipped with specific instruments for various scientific and technological missions. These include communications satellites like Starlink; space stations such as the ISS; scientific satellites like the Hubble; Earth observation satellites from companies like Planet Labs, Umbra, and HawkEye 360; GPS; miniature CubeSats for education and research; and military/defense satellites.

Not visible in the next 10 days
Identifier
44350, 2019-036M
Orbit
LEO
Last TLE update
22 hours ago
Origin
Manufacturer
SSTL (Astrium)
Mission
Operational Civil Weather
Bus & Motor
SSTL-100, Unknown motor
Mass
278 kg wet, 278 kg dry
Launch date (UTC)
2019-06-25 (6 years ago)
Launch vehicle
FALCON HEAVY
Launch site
Air Force Eastern Test Range (AFETR)
Object type
Payload
Rocket body
Debris
Shape & HBR
Box + 1 Pan, 3 m
Radar Cross Section
2.189 m², Large (>1 m²)

Expand to show TLE details & history

TLE from 22 hours ago
0 FORMOSAT7-4/COSMIC2-4
1 44350U 19036M   25181.50116428  .00003187  00000-0  19269-3 0  9998
2 44350  23.9995 310.0185 0001234  64.6388 295.4243 15.05670977331281
Epoch: 2025-06-30T12:01Z
TLE epoch observation values (Epoch: 2025-06-30T12:01:40.593Z)
Latitude
-0°
Longitude
-149.2107°
Altitude
546.961 km
Speed
7.592 km/s
True Right ascension
20h 40m 04s
True Declination
0° 00' 00"
Sunlit
Object was in full shadow at epoch
Visualization orbit readout
Latitude
-18.09206°
Longitude
71.48036°
Altitude
552.133 km
Speed
7.587 km/s
Apparent Right ascension
10h 31m 15s
Apparent Declination
-29° 14' 07"
Sunlit
Object is in daylight
Visualization observer readout
Local Sidereal Time
21:21:22
Azimuth
301.339° NW
Elevation
-72.139°
Doppler factor
1
Orbital elements
Apogee altitude
555.089 km
Perigee altitude
553.378 km
Semi-major axis
6,932.37 km
Eccentricity
0.00012
Inclination
23.9995°
RAAN
310.0185°
Arg. of periapsis
64.6388°
True anomaly
Unknown
Mean anomaly
295.4243°
Eccentric anomaly
Unknown
Mean motion
3.76028 °/min
Orbital period
95.74 mins
BSTAR
0.00019269
Loading maneuver chart data...
Loading SW <> Apogee altitude chart data...
Loading historical data...
Loading historical data...
Loading historical data...
Loading historical data...
Loading historical data...
Loading historical data...
Loading historical data...

FORMOSAT7-4/COSMIC2-4 Visibility

Observer location: undefined°, undefined°

FORMOSAT7-4/COSMIC2-4 is likely not visible in the next few days
Span
Click to sort rows by Start time (UTC) header in descending order
Start Az.
Max El. time (UTC)
Max El. Az.
Max El.
End time (UTC)
End Az.
|